Tekamah, NE

6:31 PM CST on February 18, 2018 (GMT -0600)
Tekamah

Weather History for KTQE - March, 2014

Change the Weather History Date:

Saturday, March 1, 2014

  Actual Average Record
Temperature  
Mean Temperature 10 °F -  
Max Temperature 18 °F 44 °F 73 °F (2006)
Min Temperature 1 °F 21 °F -16 °F (1962)
Degree Days  
Heating Degree Days 56    
Moisture  
Dew Point -2 °F    
Average Humidity 70    
Maximum Humidity 76    
Minimum Humidity 60    
Precipitation  
Precipitation 0.00 in - - ()
Sea Level Pressure  
Sea Level Pressure 30.44 in    
Wind  
Wind Speed 20 mph (North)    
Max Wind Speed 25 mph    
Max Gust Speed 25 mph    
Visibility 6 miles    
Events Snow    
Averages and records for this station are not official NWS values.
T = Trace of Precipitation, MM = Missing Value Source: NWS Daily Summary

Daily Weather History Graph

Daily Weather History Graph

Search for Another Location

Airport or City:

Trip Planner

Search our weather history database for the weather conditions in past years. The results will help you decide how hot, cold, wet, or windy it might be!

Date:

Astronomy

Mar. 01, 2014 Rise Set
Actual Time 6:59 AM CST 6:15 PM CST
Civil Twilight 6:31 AM CST 6:43 PM CST
Nautical Twilight 5:59 AM CST 7:15 PM CST
Astronomical Twilight 5:27 AM CST 7:47 PM CST
Moon 6:53 AM CST (3/1) 7:05 PM CST (3/1)
Length of Visible Light 12h 11m
Length of Day
11h 15m
New Moon, 0% of the Moon is Illuminated
Mar 1
New Moon
Mar 8
First Quarter
Mar 16
Full
Mar 23
Last Quarter
Mar 30
New

Hourly Weather History & Observations

Time (CST) Temp. Windchill Dew Point Humidity Pressure Visibility Wind Dir Wind Speed Gust Speed Precip Events Conditions
12:51 AM 17.6 °F 1.7 °F 10.4 °F 73% 30.21 in 10.0 mi North 18.4 mph - 0.00 in   Overcast
12:54 AM 18.0 °F 0.9 °F 10.0 °F 71% 30.24 in 10.0 mi North 21.9 mph 25.3 mph 0.00 in   Overcast
1:26 AM 16.0 °F -1.3 °F 7.0 °F 68% 30.24 in 9.0 mi North 20.7 mph - N/A   Overcast
1:54 AM 15.1 °F -2.5 °F 6.1 °F 68% 30.29 in 10.0 mi North 20.7 mph - N/A   Overcast
2:54 AM 14.0 °F -4.7 °F 5.0 °F 67% 30.25 in 10.0 mi North 23.0 mph - N/A   Overcast
3:46 AM 12.9 °F -5.7 °F 3.9 °F 67% 30.24 in 10.0 mi North 21.9 mph - N/A   Overcast
3:54 AM 12.9 °F -6.1 °F 3.9 °F 67% 30.27 in 10.0 mi North 23.0 mph - N/A   Overcast
4:12 AM 12.0 °F -6.5 °F 3.9 °F 70% 30.25 in 10.0 mi North 20.7 mph - N/A   Overcast
4:54 AM 10.9 °F -7.5 °F 3.0 °F 70% 30.31 in 10.0 mi North 19.6 mph - N/A   Overcast
5:49 AM 10.4 °F -6.6 °F 3.2 °F 73% 30.32 in 10.0 mi North 16.1 mph - N/A   Overcast
5:54 AM 10.0 °F -8.1 °F 3.0 °F 73% 30.37 in 10.0 mi North 18.4 mph - N/A   Overcast
6:09 AM 9.0 °F -9.5 °F -0.9 °F 64% 30.32 in 10.0 mi North 18.4 mph - N/A   Overcast
6:54 AM 8.1 °F -9.6 °F -0.9 °F 67% 30.37 in 10.0 mi North 16.1 mph - N/A   Overcast
7:54 AM 7.0 °F -12.6 °F -2.9 °F 64% 30.42 in 10.0 mi NNE 19.6 mph - N/A   Overcast
8:54 AM 6.1 °F -13.8 °F -2.0 °F 69% 30.49 in 10.0 mi North 19.6 mph - N/A   Overcast
9:03 AM 6.1 °F -13.3 °F -0.9 °F 73% 30.45 in 1.8 mi North 18.4 mph - 0.00 in Snow Light Snow
9:11 AM 6.1 °F -14.3 °F -0.9 °F 73% 30.45 in 0.8 mi North 20.7 mph - 0.00 in Snow Light Snow
9:37 AM 5.0 °F -15.7 °F -0.9 °F 76% 30.45 in 1.5 mi North 20.7 mph - 0.00 in Snow Light Snow
9:54 AM 5.0 °F -14.2 °F -0.9 °F 76% 30.48 in 1.2 mi North 17.3 mph - 0.00 in Snow Light Snow
10:02 AM 5.0 °F -13.6 °F -0.9 °F 76% 30.43 in 2.0 mi North 16.1 mph - 0.00 in Snow Light Snow
10:11 AM 5.0 °F -15.7 °F -2.0 °F 73% 30.44 in 5.0 mi North 20.7 mph - 0.00 in Snow Light Snow
10:54 AM 5.0 °F -15.2 °F -2.9 °F 70% 30.51 in 9.0 mi North 19.6 mph - 0.00 in   Overcast
11:54 AM 5.0 °F -14.7 °F -4.0 °F 66% 30.50 in 4.0 mi North 18.4 mph - 0.00 in Snow Light Snow
12:54 PM 3.9 °F -15.0 °F -5.1 °F 66% 30.51 in 5.0 mi North 16.1 mph - 0.00 in Snow Light Snow
1:03 PM 3.9 °F -16.6 °F -4.0 °F 70% 30.44 in 1.5 mi North 19.6 mph - 0.00 in Snow Light Snow
1:10 PM 3.9 °F -17.1 °F -2.9 °F 73% 30.45 in 0.8 mi North 20.7 mph - 0.00 in Snow Light Snow
1:36 PM 3.9 °F -16.6 °F -4.0 °F 70% 30.45 in 1.0 mi North 19.6 mph - 0.00 in Snow Light Snow
1:54 PM 3.9 °F -17.1 °F -2.9 °F 73% 30.50 in 1.0 mi North 20.7 mph - 0.00 in Snow Light Snow
2:41 PM 3.0 °F -17.8 °F -4.0 °F 73% 30.44 in 2.5 mi North 19.6 mph - 0.00 in Snow Light Snow
2:49 PM 1.4 °F -20.5 °F -5.8 °F 72% 30.45 in 4.0 mi North 20.7 mph - 0.00 in   Overcast
2:54 PM 1.9 °F -19.2 °F -5.1 °F 72% 30.50 in 4.0 mi North 19.6 mph - 0.00 in Snow Light Snow
3:46 PM 1.9 °F -18.7 °F -5.1 °F 72% 30.45 in 2.5 mi North 18.4 mph - 0.00 in Snow Light Snow
3:54 PM 1.9 °F -18.1 °F -6.0 °F 69% 30.51 in 3.0 mi North 17.3 mph - 0.00 in Snow Light Snow
4:09 PM 1.9 °F -20.7 °F -5.1 °F 72% 30.45 in 2.0 mi North 23.0 mph - 0.00 in Snow Light Snow
4:27 PM 1.9 °F -17.5 °F -5.1 °F 72% 30.45 in 4.0 mi North 16.1 mph - 0.00 in Snow Light Snow
4:38 PM 1.9 °F -19.8 °F -5.1 °F 72% 30.46 in 1.8 mi North 20.7 mph - 0.00 in Snow Light Snow
4:50 PM 1.4 °F -19.4 °F -5.8 °F 72% 30.46 in 3.0 mi North 18.4 mph - 0.00 in Snow Light Snow
4:51 PM 1.9 °F -19.2 °F -6.0 °F 69% 30.52 in 3.0 mi North 19.6 mph - 0.00 in Snow Light Snow
5:38 PM 1.0 °F -20.4 °F -6.0 °F 72% 30.46 in 2.0 mi North 19.6 mph - 0.00 in Snow Light Snow
5:52 PM 1.4 °F -20.5 °F -7.6 °F 66% 30.49 in 4.0 mi North 20.7 mph - 0.00 in   Overcast
5:54 PM 1.0 °F -22.8 °F -7.1 °F 69% 30.55 in 4.0 mi North 25.3 mph - 0.00 in   Overcast
6:12 PM 1.0 °F -19.3 °F -7.1 °F 69% 30.48 in 2.0 mi North 17.3 mph - 0.00 in Snow Light Snow
6:26 PM 1.0 °F -19.3 °F -6.0 °F 72% 30.47 in 3.0 mi North 17.3 mph - 0.00 in Snow Light Snow
6:54 PM 1.9 °F -18.1 °F -6.0 °F 69% 30.56 in 10.0 mi North 17.3 mph - 0.00 in   Overcast
7:54 PM 1.9 °F -16.2 °F -7.1 °F 66% 30.56 in 10.0 mi NNE 13.8 mph - N/A   Overcast
8:54 PM 1.9 °F -18.1 °F -7.1 °F 66% 30.59 in 10.0 mi North 17.3 mph - N/A   Overcast
9:54 PM 1.9 °F -19.2 °F -9.0 °F 60% 30.60 in 10.0 mi North 19.6 mph - N/A   Overcast
10:54 PM 1.0 °F -19.9 °F -9.0 °F 63% 30.61 in 10.0 mi North 18.4 mph - N/A   Overcast
11:54 PM 1.0 °F -20.9 °F -9.9 °F 60% 30.61 in 10.0 mi North 20.7 mph - N/A   Overcast